Probability
0 0 0 0 0 0 0 0 0 0 0 0 0 0 0 0 0 0 0 0 0 0 0 0 0 1 2 1 0 1 0 0 0 0 0 0 0 0 0 0 0 0 0 0 0 0 0 0 0
0 0 0 0 0 0 0 0 0 0 0 0 0 0 0 0 0 0 0 0 0 0 0 0 1 2 2 1 0 1 1 0 0 0 0 0 0 0 0 0 0 0 0 0 0 0 0 1 1
0 0 0 0 0 0 0 0 0 0 0 0 0 0 0 0 0 0 0 0 0 0 0 0 1 2 2 1 1 1 1 0 0 0 0 0 0 0 0 0 0 0 0 0 0 0 1 2 2
0 0 0 0 0 0 0 0 0 0 0 0 0 0 0 0 0 0 0 0 0 0 0 0 1 2 2 1 1 1 1 1 0 0 0 0 0 0 0 0 0 0 0 0 0 0 1 2 3
0 0 0 0 0 0 0 0 0 0 0 0 0 0 0 0 0 0 0 0 0 0 0 0 0 1 2 2 2 3 2 2 1 0 0 0 0 0 0 0 0 0 0 0 0 0 1 2 3
0 0 0 0 0 0 0 0 0 0 0 0 0 0 0 0 0 0 0 0 0 0 0 0 0 0 1 2 2 2 2 2 1 0 0 0 0 0 0 0 0 0 0 0 0 1 2 3 3
0 0 0 0 0 0 0 0 0 0 0 0 0 0 0 0 0 0 0 0 0 0 0 0 0 0 0 1 1 1 1 1 0 0 0 0 0 0 0 0 0 0 0 0 0 1 2 3 3
0 0 0 0 0 0 0 0 0 0 0 0 0 0 0 0 0 0 0 0 0 0 0 0 0 0 0 0 0 0 0 0 0 0 0 0 0 0 0 0 0 0 0 0 0 0 1 2 2
0 0 0 0 0 0 0 0 0 0 0 0 0 0 0 0 0 0 0 0 0 0 0 0 0 0 0 0 0 0 0 0 0 0 0 0 0 0 0 0 0 0 0 0 0 0 1 1 1
0 0 0 0 0 0 0 0 0 0 0 0 0 0 0 0 0 0 0 0 0 0 0 0 0 0 0 0 0 0 0 0 0 0 0 0 0 0 0 0 0 0 0 0 0 0 1 1 1
0 0 0 0 0 0 0 0 0 0 0 0 0 0 0 0 0 0 0 0 0 0 0 0 0 0 0 0 0 0 0 0 0 0 0 1 1 0 0 0 0 0 0 0 0 1 2 2 2
0 0 0 0 0 0 0 0 0 0 0 0 0 0 0 0 0 0 0 0 0 0 0 0 1 1 0 1 1 0 0 1 1 1 2 2 2 1 0 0 0 0 0 0 0 2 3 3 2
0 0 0 0 0 0 0 0 0 0 0 0 0 0 0 0 0 0 0 0 0 0 0 0 1 2 2 2 2 1 0 0 1 2 2 3 2 1 0 0 0 0 0 0 0 1 2 1 1
0 0 0 0 0 0 0 0 0 0 0 0 0 0 0 0 0 0 0 0 0 0 0 0 1 2 3 3 3 2 1 0 0 1 1 2 2 1 0 0 0 0 0 0 1 1 1 0 0
0 0 0 0 0 0 0 0 0 0 0 0 0 0 0 0 0 0 0 0 0 0 0 0 1 2 3 3 3 3 2 1 0 0 0 1 1 0 0 0 0 0 0 0 1 1 1 1 1
0 0 0 0 0 0 0 0 0 0 0 0 0 0 0 0 0 0 0 0 0 0 0 0 1 2 3 3 3 3 3 1 0 0 0 0 0 0 0 0 0 0 0 0 0 1 2 2 2
0 0 0 0 0 0 0 0 0 0 0 0 0 0 0 0 0 0 0 0 0 0 0 0 0 1 3 3 3 3 3 2 1 0 0 0 0 0 0 0 0 0 0 0 0 1 2 2 2
0 0 0 0 0 0 0 0 0 0 0 0 0 0 0 0 0 0 0 0 0 0 0 0 0 1 2 3 3 3 3 2 1 0 0 0 0 0 0 0 0 0 0 0 0 1 2 2 1
0 0 0 0 0 0 0 0 0 0 0 0 0 0 0 0 0 0 0 0 0 0 0 0 0 0 1 2 3 3 3 2 0 0 0 0 0 0 0 0 0 0 0 0 0 1 1 1 0
0 0 0 0 0 0 0 0 0 0 0 0 0 0 0 0 0 0 0 0 0 0 0 0 0 0 1 2 3 3 3 2 1 0 0 0 0 0 0 0 0 0 0 0 0 0 0 0 0
0 0 0 0 0 0 0 0 0 0 0 0 0 0 0 0 0 0 0 0 0 1 1 0 0 0 0 1 2 3 3 2 1 0 0 0 0 0 0 0 0 0 0 0 0 0 0 0 0
0 0 0 0 0 0 0 0 0 0 0 0 0 0 0 0 0 0 0 0 0 1 2 1 1 0 0 1 2 3 3 3 1 0 0 0 0 0 0 0 0 0 0 0 0 0 0 0 0
0 0 0 0 0 0 0 0 0 0 0 0 0 0 0 0 0 0 0 0 0 1 2 2 2 1 0 0 1 1 3 3 2 1 0 0 0 0 0 0 0 0 0 0 0 0 0 0 0
0 0 0 0 0 0 0 0 0 0 0 0 0 0 0 0 0 0 0 0 0 0 1 2 3 2 1 1 0 1 2 2 2 1 0 0 0 0 0 0 0 0 0 0 0 0 0 0 0
0 0 0 0 0 0 0 0 0 0 0 0 0 0 0 0 0 0 0 0 0 0 0 1 2 2 2 2 1 1 1 1 1 0 0 0 0 0 0 0 0 0 0 0 0 0 0 0 0
0 0 0 0 0 0 0 0 0 0 0 0 0 0 0 0 0 0 0 0 0 0 0 0 1 1 2 3 3 2 1 1 1 1 0 0 0 0 0 0 0 0 0 0 0 0 0 0 0
0 0 0 0 0 0 0 0 0 0 0 0 0 0 0 0 0 0 0 0 0 0 0 0 0 0 1 2 3 3 3 2 2 2 1 0 0 0 0 0 0 0 0 0 0 0 0 0 0
0 0 0 0 0 0 0 0 0 0 0 0 0 0 0 0 0 0 0 0 0 0 0 0 0 0 0 1 1 2 3 3 3 3 2 1 0 0 0 0 0 0 1 0 0 0 0 0 0
0 0 0 0 0 0 0 0 0 0 0 0 0 0 0 0 0 0 0 0 0 0 0 0 0 0 0 0 0 1 2 3 3 3 2 1 0 0 0 0 0 0 0 0 0 0 0 0 0
0 0 0 0 0 0 0 0 0 0 0 0 0 0 0 0 0 0 0 0 0 0 0 0 0 0 0 0 0 0 1 3 3 3 1 0 0 0 0 0 0 0 0 0 0 0 0 0 0
Wind_Speed
4 2 2 3 4 4 4 3 2 2 2 0 1 1 0 0 1 3 4 2 2 5 6 6 5 7 8 8 9 9 8 8 8 8 8 8 8 8 8 8 8 7 7 7 7 7 7 8 8
2 1 3 3 5 5 4 3 4 2 1 1 1 0 1 1 2 3 2 2 3 5 6 6 5 7 8 8 8 8 8 8 8 7 7 7 7 7 7 7 7 6 6 7 7 6 7 7 6
1 1 2 3 4 5 2 2 2 1 1 1 1 1 1 2 2 2 2 3 4 5 5 5 5 7 7 7 7 7 8 7 7 6 6 6 7 7 6 6 6 6 6 6 6 6 6 6 6
2 2 2 4 6 4 2 1 0 2 2 0 1 2 2 2 3 3 2 3 5 6 5 5 4 6 7 7 7 6 6 6 6 6 6 6 6 6 6 6 6 5 5 5 5 5 5 5 5
1 2 4 5 6 4 3 2 1 2 2 1 1 1 1 2 3 3 3 4 5 5 4 5 4 5 6 7 6 6 7 6 5 5 5 5 5 5 5 5 5 5 5 5 5 5 5 5 5
2 3 5 7 7 4 3 3 3 3 2 1 1 1 1 3 2 3 4 4 4 4 4 4 4 4 5 6 6 6 6 6 6 6 5 5 4 4 4 4 4 4 4 5 4 4 4 4 4
3 3 5 6 6 6 3 3 3 4 4 2 2 2 2 3 2 3 4 4 4 4 4 3 4 4 5 5 5 5 6 6 5 5 5 4 4 4 4 4 4 4 4 4 4 3 3 3 3
1 3 5 6 7 5 2 3 2 4 3 0 2 3 2 2 3 4 4 4 4 4 3 3 3 3 4 4 5 5 5 5 5 5 5 5 4 4 5 4 4 4 4 3 3 3 3 3 3
3 5 7 6 6 4 2 3 2 1 2 1 1 2 2 3 4 4 4 3 3 2 2 3 3 3 3 4 4 4 4 4 4 4 5 3 2 2 2 3 4 3 3 3 3 3 3 2 2
4 6 6 3 3 2 2 3 2 3 4 3 3 2 2 3 4 5 4 4 3 3 2 2 3 3 3 3 3 3 3 3 3 2 2 1 1 1 1 3 3 3 3 3 3 3 1 0 0
3 5 4 4 2 2 2 2 2 5 6 6 5 4 4 4 4 4 5 5 4 3 3 2 2 3 3 2 2 2 1 2 2 2 2 1 1 1 1 1 1 1 1 1 1 0 1 1 0
3 4 4 3 2 3 4 3 4 6 7 4 4 3 4 5 5 5 5 5 4 4 4 3 3 3 3 2 2 2 2 2 2 2 2 1 1 1 1 1 1 1 1 0 1 1 1 1 1
5 4 3 4 3 4 4 6 6 8 7 5 4 4 5 6 6 5 5 5 4 4 4 4 3 3 3 3 2 2 2 2 2 2 2 2 2 2 1 1 1 1 1 1 1 1 1 1 1
3 4 4 4 5 4 5 7 6 8 5 5 5 6 6 6 6 5 5 5 5 5 5 4 4 4 4 3 2 2 2 2 2 2 2 3 2 2 2 2 1 1 1 1 1 1 1 1 1
2 3 5 4 4 3 4 8 9 8 5 5 6 5 5 5 5 6 6 5 5 5 5 4 4 4 4 4 3 2 2 2 2 2 2 3 2 3 2 2 2 1 1 1 1 1 1 1 1
3 5 6 3 3 4 6 10 6 4 6 7 6 6 6 5 5 6 5 5 5 5 5 4 4 5 5 4 3 2 2 2 2 2 2 3 3 3 2 2 2 2 1 1 1 1 1 1 1
5 6 7 5 3 3 7 10 6 3 6 7 7 6 5 5 5 5 5 5 5 5 5 4 5 5 5 4 3 3 2 2 2 2 2 2 3 3 3 2 2 2 2 1 1 2 1 1 1
7 7 7 7 2 4 8 11 9 6 7 8 8 7 6 6 6 5 4 4 4 4 4 4 4 4 4 3 3 2 2 2 2 2 2 3 3 3 3 2 2 2 2 1 1 2 1 1 1
5 7 9 7 2 5 10 12 12 9 8 9 9 8 7 7 6 4 3 3 3 3 4 4 4 4 3 3 3 3 2 2 2 2 3 3 3 3 3 2 2 2 2 2 2 1 1 0 0
7 9 9 5 2 4 8 13 12 10 9 9 9 8 8 7 6 4 4 3 3 4 4 4 4 4 4 3 3 2 2 2 2 2 2 3 3 4 3 3 3 3 2 2 2 1 1 0 1
9 10 9 7 3 4 7 11 10 8 7 7 7 8 7 7 6 5 4 3 3 3 4 3 4 4 4 4 3 2 2 2 2 2 2 3 3 3 3 4 3 3 3 3 3 3 3 2 2
10 7 7 6 6 4 4 9 8 7 8 8 7 7 6 5 4 4 4 4 3 3 3 3 3 3 4 4 4 5 4 4 4 3 3 3 3 3 4 4 4 3 3 3 3 3 3 3 2
5 3 5 6 6 6 6 9 8 4 8 9 7 6 4 4 3 3 3 3 2 2 2 2 3 3 3 4 5 5 5 4 3 3 3 3 3 3 3 3 4 4 3 4 4 3 4 3 3
4 3 2 3 4 8 8 9 9 6 8 6 5 4 4 3 2 2 1 1 1 1 1 1 2 2 2 3 4 5 5 5 4 4 3 3 2 3 3 3 3 4 4 4 4 4 5 4 4
5 5 3 4 5 7 4 9 10 4 4 5 4 3 3 2 2 2 1 1 0 0 0 1 1 1 1 2 3 4 5 5 5 5 4 4 3 3 4 3 4 3 4 4 4 4 5 5 5
9 8 6 6 6 4 5 11 7 2 1 2 2 2 2 2 2 2 1 1 0 0 1 1 1 1 1 1 2 3 3 3 3 4 4 4 4 3 3 4 4 4 4 4 4 3 4 4 5
8 8 5 3 2 6 8 8 7 3 4 3 3 3 3 2 2 2 1 0 0 0 1 1 1 1 1 1 1 2 2 2 3 3 4 3 3 3 4 4 4 4 4 4 4 4 4 4 5
5 4 4 6 6 9 9 10 8 6 6 4 4 4 3 2 2 2 1 0 1 1 1 1 1 1 1 1 1 1 1 2 2 2 3 3 3 3 3 4 4 4 4 4 4 4 4 5 5
7 7 6 5 5 6 8 7 2 4 5 6 5 4 3 3 2 2 2 1 0 1 1 2 2 1 1 1 1 1 1 1 1 2 2 2 3 3 3 4 4 4 4 4 4 5 5 5 5
7 8 9 7 7 7 8 8 2 1 1 3 3 3 2 2 2 2 1 1 1 0 1 1 2 2 2 2 1 1 2 2 2 2 2 2 2 2 3 3 4 4 4 4 5 5 5 5 6
Wind_Direction
314 297 242 219 212 214 220 202 208 169 165 68 24 264 259 342 329 40 60 114 123 151 159 155 138 138 134 130 126 124 122 118 115 111 108 106 103 99 97 93 89 87 87 87 85 81 78 76 74
307 264 214 216 232 219 203 196 205 211 80 111 125 199 144 93 24 38 84 122 145 149 155 154 129 134 134 132 129 127 124 121 120 117 113 112 107 100 97 95 92 89 88 87 85 83 81 78 77
208 265 220 208 224 234 192 156 208 162 109 210 146 56 1 30 40 30 49 143 150 148 155 143 124 130 131 130 130 128 124 125 125 123 118 116 111 105 99 95 93 90 87 85 82 80 80 79 80
215 178 197 224 217 234 253 70 115 167 158 175 197 135 110 35 1 25 85 144 148 145 149 132 114 126 126 123 124 125 123 123 126 123 119 116 113 107 101 97 91 86 84 82 80 77 75 76 80
220 207 201 215 225 225 243 275 239 223 185 160 202 177 124 79 43 73 111 135 144 142 142 132 105 118 123 121 120 115 111 108 110 113 112 114 112 107 105 102 95 86 83 80 77 76 76 77 75
182 211 219 220 217 215 229 246 229 236 225 199 211 217 122 91 82 94 123 137 141 140 142 137 110 112 121 121 122 115 110 105 100 98 102 102 100 105 105 99 94 90 83 77 75 71 71 72 74
212 212 229 228 226 223 220 219 231 235 225 224 241 210 147 121 80 112 132 136 135 133 137 141 151 142 125 114 111 109 104 101 97 93 87 87 85 87 84 81 90 91 82 74 69 67 64 68 71
248 211 214 223 228 230 205 198 242 257 250 29 231 226 173 105 113 127 126 131 132 134 142 148 156 158 160 143 108 102 96 93 91 86 80 79 83 86 78 76 74 80 75 69 65 62 60 56 65
219 224 222 218 223 220 184 209 224 242 224 194 224 287 39 112 142 141 133 134 139 137 149 159 161 163 162 155 137 133 114 98 99 98 85 96 130 125 112 82 64 70 74 70 63 55 57 52 76
212 225 227 231 237 224 199 226 231 210 215 215 207 208 146 152 162 165 167 175 180 177 169 171 173 169 164 156 157 167 159 147 151 147 136 147 140 118 104 82 66 63 64 71 63 47 54 305 145
210 227 223 228 236 253 245 250 250 235 241 237 237 229 185 182 187 193 194 194 197 195 182 186 184 179 172 163 163 158 163 162 171 161 156 160 159 145 145 134 113 104 95 106 94 151 279 296 314
209 235 239 245 223 235 250 259 254 247 256 280 264 242 200 203 207 212 210 208 203 201 201 194 186 179 178 172 169 162 164 176 178 168 170 172 179 184 181 178 186 184 197 220 252 253 279 292 270
221 235 244 246 242 245 248 251 260 258 261 268 261 235 227 228 227 226 221 214 208 209 209 202 194 191 183 181 179 174 176 189 185 172 183 190 192 197 200 203 209 216 226 239 263 252 243 249 257
216 229 246 261 251 243 240 254 247 255 259 247 238 236 233 234 236 231 218 215 212 213 213 203 199 194 188 184 186 184 181 183 191 187 195 206 210 203 207 213 217 228 241 257 257 260 250 248 256
190 230 250 243 234 226 233 253 238 247 241 242 243 242 241 242 237 233 228 223 219 216 213 206 201 195 195 193 189 187 184 183 191 197 202 213 221 211 211 216 222 229 240 250 248 246 273 279 267
201 222 241 226 218 211 225 253 244 228 231 248 252 249 246 246 241 238 234 229 226 222 215 208 196 194 196 196 193 193 189 185 195 199 205 218 223 218 208 213 225 228 230 236 238 232 247 263 275
205 232 244 244 204 206 223 256 258 231 236 251 254 248 244 247 249 242 234 230 225 221 217 208 199 197 197 197 193 192 192 191 196 202 207 217 222 218 213 212 214 212 217 231 242 247 249 256 286
218 231 241 245 213 218 236 255 262 251 246 254 255 248 244 247 252 248 235 228 225 219 215 208 201 201 199 193 190 182 189 193 197 207 216 217 221 220 217 212 204 199 208 224 238 243 248 246 297
231 235 247 254 244 240 250 261 264 262 254 253 250 245 245 249 254 245 233 220 214 212 212 207 202 200 195 193 195 196 204 205 211 216 224 220 220 218 218 213 202 202 210 220 228 225 214 167 3
224 237 247 254 225 249 268 269 264 256 250 251 253 249 249 250 248 239 230 220 213 211 211 208 208 205 203 205 205 209 211 217 219 217 228 227 221 216 219 219 212 209 210 206 202 208 209 207 196
227 234 241 248 270 245 277 268 247 239 237 243 247 249 250 247 246 235 225 221 218 218 218 216 216 215 212 208 198 195 201 214 212 222 227 238 235 220 219 221 215 206 206 208 206 210 204 207 215
236 229 232 239 245 250 256 275 254 239 238 238 238 239 248 248 244 236 226 219 217 221 219 221 222 219 213 205 205 205 211 221 225 229 234 237 231 227 219 219 214 207 210 214 210 215 217 210 212
224 181 207 227 238 256 235 255 263 214 243 241 234 232 240 239 234 229 226 221 218 218 219 222 217 215 211 211 214 213 222 229 227 228 231 232 228 225 220 220 219 215 216 219 213 214 219 218 219
163 138 148 197 222 246 230 235 262 223 234 244 230 221 223 224 220 218 214 202 204 196 204 216 218 214 215 216 218 220 224 227 227 231 234 233 235 232 230 229 231 231 228 223 220 213 221 226 227
186 181 206 215 218 238 193 231 255 235 229 242 237 222 207 202 200 184 178 180 191 219 200 209 218 226 234 229 229 230 234 232 231 232 234 235 235 238 238 235 236 237 239 236 227 220 221 228 228
202 209 216 234 240 247 203 237 253 223 237 239 229 203 176 173 173 168 174 177 163 233 241 227 229 238 249 252 255 251 244 240 240 240 240 237 238 239 242 238 239 238 237 234 226 227 228 230 232
196 216 244 245 272 264 243 251 262 211 224 211 198 175 170 173 180 187 172 103 44 338 286 273 256 270 269 263 269 274 268 258 252 250 245 244 248 249 239 237 236 236 233 231 225 227 228 230 236
238 192 186 206 224 245 251 246 243 211 217 204 189 186 184 181 188 195 191 232 12 9 357 345 321 299 298 286 279 286 285 282 274 264 262 259 259 254 244 241 240 239 236 230 226 230 229 231 236
190 200 211 212 233 239 255 247 230 214 199 195 192 190 191 192 195 193 187 184 71 45 29 10 359 340 320 310 312 323 325 325 313 296 290 287 278 265 254 247 243 239 238 236 232 236 233 233 240
224 209 197 212 224 229 252 255 86 186 209 198 200 195 190 186 178 181 168 157 147 89 40 18 4 358 337 329 338 354 351 349 337 322 312 306 293 283 270 257 248 245 245 243 240 241 242 238 239